[[{"header":{"parameterUnit":"m.s-1","parameterCategory":1,"la1":30.2991,"la2":30.254,"lo1":-89.0895,"lo2":-89.0444,"dy":0.0017,"dx":0.0017,"nx":28,"ny":28,"refTime":"2025-12-15T09:00:00:Z","depth":0,"parameterNumber":2,"parameterNumberName":"U-component_of_WINDS"},"data":[0,0,0,0,0,0,0,0,0,0,0,0,0,0,0,0,0,0,0,0,0,0,0,0,0,0,0,0,0,0,0,0,0,0,0,0,0,0,0,0,0,0,0,0,0,0,0,0,0,0,0,0,0,0,0,0,0,0,-3.4448,-3.445,0,-3.4554,-3.4556,-3.4557,-3.4507,-3.4504,-3.4501,-3.4499,-3.4604,-3.461,-3.4615,0,0,0,0,0,0,0,0,0,0,0,0,0,-3.4199,-3.4204,-3.4448,-3.445,-3.4451,-3.4554,-3.4556,-3.4557,-3.4507,-3.4504,-3.45,-3.4497,-3.4603,-3.4609,-3.4615,0,0,0,0,0,0,0,0,0,0,0,0,0,-3.4306,-3.4205,-3.4448,-3.4439,-3.4439,-3.4554,-3.4556,-3.4557,-3.4508,-3.4504,-3.45,-3.4496,-3.4601,-3.4608,-3.4616,-3.4746,0,0,-3.4641,-3.4644,0,0,0,0,0,0,0,0,-3.43,-3.4315,-3.4439,-3.4439,-3.444,-3.4513,-3.4506,-3.4621,-3.4509,-3.4481,-3.4499,-3.4494,-3.4577,-3.4587,-3.4615,-3.4751,-3.4756,-3.4641,-3.4646,-3.4649,-3.4652,0,0,0,0,0,0,0,-3.4293,-3.431,-3.449,-3.444,-3.4441,-3.4428,-3.4438,-3.4528,-3.455,-3.4483,-3.448,-3.4494,-3.4577,-3.4608,-3.4617,-3.4757,-3.4641,-3.4648,-3.4653,-3.4656,-3.5002,-3.5006,0,0,0,0,0,0,-3.4286,-3.4305,-3.4487,-3.4493,-3.4359,-3.4435,-3.4448,-3.4494,-3.4549,-3.4554,-3.4497,-3.4491,-3.4596,-3.4608,-3.4621,-3.4774,-3.4649,-3.4657,-3.4661,-3.4997,-3.5003,-3.5007,0,0,0,0,0,0,-3.4281,-3.4303,-3.4482,-3.4398,-3.442,-3.4444,-3.4496,-3.4498,-3.4529,-3.456,-3.4563,-3.4525,-3.4593,-3.461,-3.4715,-3.4777,-3.4661,-3.4668,-3.4992,-3.4999,-3.5005,-3.5084,0,0,0,0,0,0,-3.4274,-3.4301,-3.4352,-3.44,-3.4425,-3.4576,-3.45,-3.4503,-3.4543,-3.4536,-3.4587,-3.4591,-3.4592,-3.4703,-3.4723,-3.4786,-3.4674,-3.4987,-3.4995,-3.5003,-3.5076,-3.5092,-3.5106,0,0,0,0,0,-3.4265,-3.437,-3.4355,-3.4377,-3.4489,-3.458,-3.4594,-3.4593,-3.4549,-3.4599,-3.4618,-3.4589,-3.4768,-3.4714,-3.4736,-3.4803,-3.4983,-3.4993,-3.5002,-3.5069,-3.5089,-3.5106,0,0,0,0,0,0,-3.4328,-3.4376,-3.436,-3.4483,-3.4528,-3.4571,-3.4634,-3.4615,-3.4673,-3.4664,-3.4659,-3.4671,-3.478,-3.4802,-3.4742,-3.493,-3.4868,-3.4883,-3.4911,-3.4931,-3.4946,-3.4937,-3.4681,0,0,0,0,0,-3.4356,-3.4427,-3.4465,-3.457,-3.4593,-3.461,-3.465,-3.4646,-3.4691,-3.471,-3.4737,-3.4781,-3.4847,-3.4891,-3.4953,-3.5079,-3.5088,-3.5136,-3.5151,-3.5164,-3.5176,-3.5241,-3.5262,-3.504,-3.504,-3.504,0,0,-3.4415,-3.445,-3.4495,-3.4584,-3.4618,-3.469,-3.4626,-3.4706,-3.4759,-3.4721,-3.4822,-3.4844,-3.4893,-3.5008,-3.5061,-3.503,-3.5239,-3.5176,-3.5186,-3.5191,-3.5254,-3.5275,-3.5293,-3.5047,-3.5045,-3.5044,0,0,-3.4558,-3.4593,-3.4683,-3.4719,-3.4771,-3.4782,-3.4804,-3.485,-3.4863,-3.4964,-3.4937,-3.4999,-3.5114,-3.5149,-3.5182,-3.5339,-3.5313,-3.5359,-3.5439,-3.5503,-3.552,-3.5536,-3.5588,-3.5608,-3.5372,-3.5372,-3.5372,0,-3.4624,-3.4733,-3.4732,-3.4813,-3.4852,-3.4822,-3.4912,-3.4947,-3.5017,-3.5043,-3.5009,-3.5151,-3.5182,-3.5304,-3.5342,-3.5371,-3.5394,-3.5352,-3.5518,-3.5533,-3.5548,-3.5598,-3.5618,-3.5377,-3.5376,-3.5376,-3.5375,0,-3.481,-3.4886,-3.4952,-3.502,-3.5067,-3.5152,-3.5163,-3.521,-3.5201,-3.5215,-3.5317,-3.5354,-3.5422,-3.5451,-3.5444,-3.5572,-3.5551,-3.5518,-3.5455,-3.5574,-3.5621,-3.5641,-3.5384,-3.5382,-3.5381,-3.5379,0,0,-3.4994,-3.5061,-3.5085,-3.5115,-3.5171,-3.5228,-3.5312,-3.5379,-3.5418,-3.5468,-3.5536,-3.5633,-3.5602,-3.564,-3.5636,-3.5693,-3.5811,-3.5652,-3.5653,-3.5678,-3.5951,-3.5974,-3.5996,-3.5796,-3.5799,-3.5802,-3.5946,0,-3.5139,-3.5286,-3.5287,-3.5421,-3.5489,-3.5462,-3.5534,-3.5575,-3.5591,-3.565,-3.5666,-3.5734,-3.5689,-3.5711,-3.5766,-3.5785,-3.5865,-3.5775,-3.5856,-3.5859,-3.5842,-3.6021,-3.6046,-3.6179,-3.5965,-3.5968,-3.597,0,-3.5328,-3.5383,-3.5524,-3.5568,-3.5597,-3.5662,-3.5723,-3.5781,-3.5826,-3.5833,-3.5875,-3.5862,-3.5945,-3.5882,-3.5995,-3.5933,-3.5967,-3.5981,-3.5986,-3.5991,-3.592,-3.6028,-3.6222,-3.6241,-3.6,-3.5997,-3.5995,0,-3.5445,-3.5555,-3.5653,-3.5679,-3.5734,-3.578,-3.5805,-3.5846,-3.5886,-3.5939,-3.5965,-3.6027,-3.606,-3.6108,-3.6112,-3.6066,-3.6225,-3.6163,-3.6231,-3.6231,-3.6263,-3.6261,-3.6462,-3.629,-3.629,-3.6289,-3.6289,0,-3.5605,-3.5691,-3.5705,-3.5765,-3.5861,-3.5861,-3.5955,-3.5976,-3.6013,-3.6075,-3.6056,-3.6115,-3.6118,-3.6178,-3.6182,-3.6273,-3.6289,-3.6295,-3.6294,-3.6295,-3.6294,-3.6315,-3.6305,-3.6295,-3.6294,-3.6293,-3.6292,0,-3.575,-3.5764,-3.5868,-3.5911,-3.5924,-3.5992,-3.6028,-3.6084,-3.6098,-3.6177,-3.6195,-3.6216,-3.6285,-3.6294,-3.6375,-3.6378,-3.6487,-3.6478,-3.6471,-3.6469,-3.6535,-3.6528,-3.6755,-3.6783,-3.6596,-3.6597,-3.6599,0,-3.585,-3.5916,-3.5966,-3.6007,-3.6034,-3.61,-3.614,-3.6143,-3.6185,-3.6242,-3.6291,-3.6358,-3.6412,-3.6523,-3.6544,-3.6606,-3.6596,-3.6672,-3.6605,-3.6603,-3.6594,-3.6589,-3.6594,-3.6684,-3.6686,-3.6688,-3.6689,0,-3.6025,-3.6028,-3.6088,-3.6149,-3.6198,-3.6247,-3.6293,-3.6327,-3.6335,-3.6384,-3.6454,-3.6496,-3.6579,-3.6645,-3.6705,-3.6729,-3.671,-3.671,-3.6728,-3.6728,-3.672,-3.6723,-3.6503,-3.6704,-3.6703,-3.6702,-3.6701,-3.67,-3.6149,-3.6205,-3.6249,-3.6315,-3.635,-3.6393,-3.6447,-3.6467,-3.6526,-3.6593,-3.6592,-3.6668,-3.6711,-3.679,-3.6818,-3.6878,-3.6853,-3.688,-3.6887,-3.6893,-3.6898,-3.6714,-3.6889,-3.6889,-3.6888,-3.6888,-3.6888,0,-3.632,-3.6347,-3.6408,-3.6472,-3.6524,-3.6503,-3.6552,-3.6596,-3.6664,-3.6706,-3.6759,-3.6839,-3.6903,-3.693,-3.6992,-3.7034,-3.7026,-3.705,-3.7045,-3.7051,-3.6918,-3.6894,-3.7055,-3.7055,-3.7055,-3.7055,-3.7055,-3.7055,-3.6415,-3.6508,-3.6516,-3.6626,-3.6652,-3.6727,-3.6756,-3.6795,-3.6828,-3.6918,-3.6971,-3.6989,-3.7024,-3.7088,-3.7145,-3.7151,-3.7174,-3.7201,-3.7202,-3.7077,-3.706,-3.7044,-3.7022,-3.7206,-3.7206,-3.733,-3.7331,-3.7332]},{"header":{"parameterUnit":"m.s-1","parameterCategory":1,"la1":30.2991,"la2":30.254,"lo1":-89.0895,"lo2":-89.0444,"dy":0.0017,"dx":0.0017,"nx":28,"ny":28,"refTime":"2025-12-15T09:00:00:Z","depth":0,"parameterNumber":3,"parameterNumberName":"V-component_of_WINDS"},"data":[0,0,0,0,0,0,0,0,0,0,0,0,0,0,0,0,0,0,0,0,0,0,0,0,0,0,0,0,0,0,0,0,0,0,0,0,0,0,0,0,0,0,0,0,0,0,0,0,0,0,0,0,0,0,0,0,0,0,-0.8485,-0.8486,0,-0.853,-0.853,-0.8531,-0.8551,-0.8551,-0.8551,-0.8551,-0.8598,-0.86,-0.8601,0,0,0,0,0,0,0,0,0,0,0,0,0,-0.8419,-0.842,-0.8485,-0.8486,-0.8486,-0.853,-0.853,-0.8531,-0.8551,-0.8551,-0.8551,-0.8551,-0.8598,-0.8599,-0.8601,0,0,0,0,0,0,0,0,0,0,0,0,0,-0.8454,-0.842,-0.8485,-0.8502,-0.8504,-0.8529,-0.853,-0.8531,-0.8551,-0.8551,-0.8551,-0.8551,-0.8597,-0.8599,-0.8601,-0.8614,0,0,-0.8607,-0.8608,0,0,0,0,0,0,0,0,-0.8452,-0.8456,-0.8499,-0.8501,-0.8503,-0.8535,-0.8524,-0.8559,-0.8551,-0.8533,-0.8551,-0.8551,-0.8577,-0.8581,-0.8589,-0.8616,-0.8618,-0.8607,-0.8608,-0.8609,-0.861,0,0,0,0,0,0,0,-0.8449,-0.8454,-0.8503,-0.8499,-0.8502,-0.8507,-0.8512,-0.8531,-0.8555,-0.8535,-0.8536,-0.8541,-0.8578,-0.8588,-0.8591,-0.8619,-0.8607,-0.8609,-0.861,-0.8611,-0.8658,-0.8658,0,0,0,0,0,0,-0.8444,-0.8452,-0.8501,-0.8504,-0.8477,-0.8508,-0.8514,-0.8525,-0.8555,-0.856,-0.8541,-0.8542,-0.8584,-0.8588,-0.8592,-0.8609,-0.8609,-0.8611,-0.8612,-0.8658,-0.8658,-0.8658,0,0,0,0,0,0,-0.8442,-0.8448,-0.85,-0.8479,-0.8486,-0.851,-0.8521,-0.8526,-0.8535,-0.856,-0.8564,-0.8546,-0.8584,-0.859,-0.8608,-0.8611,-0.8612,-0.8614,-0.8658,-0.8658,-0.8658,-0.8643,0,0,0,0,0,0,-0.844,-0.8448,-0.8453,-0.8479,-0.8487,-0.8515,-0.8522,-0.8526,-0.8538,-0.8539,-0.8566,-0.857,-0.8585,-0.8605,-0.861,-0.8614,-0.8615,-0.8658,-0.8658,-0.8658,-0.8643,-0.8642,-0.8642,0,0,0,0,0,-0.8438,-0.8447,-0.8453,-0.8459,-0.8494,-0.8515,-0.8519,-0.8536,-0.8538,-0.8543,-0.8559,-0.8569,-0.861,-0.8607,-0.8613,-0.8617,-0.8658,-0.8658,-0.8658,-0.8643,-0.8642,-0.8642,0,0,0,0,0,0,-0.8422,-0.8451,-0.8458,-0.8475,-0.8492,-0.8518,-0.8526,-0.8534,-0.8552,-0.8552,-0.8572,-0.8578,-0.8595,-0.8608,-0.8604,-0.863,-0.8634,-0.8636,-0.8621,-0.8621,-0.862,-0.8617,-0.8617,0,0,0,0,0,-0.842,-0.8435,-0.846,-0.8473,-0.8481,-0.8502,-0.8511,-0.8522,-0.8541,-0.8549,-0.8566,-0.8584,-0.8601,-0.8611,-0.8628,-0.8645,-0.8651,-0.865,-0.865,-0.8649,-0.865,-0.8659,-0.8659,-0.8659,-0.8659,-0.8659,0,0,-0.8418,-0.8435,-0.8443,-0.847,-0.8484,-0.8499,-0.8508,-0.8523,-0.8534,-0.8551,-0.8569,-0.8583,-0.8604,-0.8621,-0.863,-0.8632,-0.8651,-0.8649,-0.8648,-0.865,-0.8659,-0.8659,-0.8659,-0.8659,-0.8659,-0.8659,0,0,-0.842,-0.8435,-0.8447,-0.8461,-0.8482,-0.8495,-0.8498,-0.8522,-0.8532,-0.855,-0.8563,-0.8576,-0.8605,-0.8619,-0.863,-0.8636,-0.8646,-0.8641,-0.8637,-0.8646,-0.8646,-0.8646,-0.8647,-0.8648,-0.8642,-0.8642,-0.8642,0,-0.8414,-0.8436,-0.8452,-0.8466,-0.8477,-0.8493,-0.8505,-0.8518,-0.8544,-0.8551,-0.8554,-0.8589,-0.8604,-0.8625,-0.8626,-0.8635,-0.8638,-0.8638,-0.8644,-0.8645,-0.8645,-0.8647,-0.8647,-0.8641,-0.8641,-0.8641,-0.8641,0,-0.8427,-0.8442,-0.8449,-0.8473,-0.8485,-0.8498,-0.8516,-0.8526,-0.8536,-0.8549,-0.8567,-0.8586,-0.8606,-0.8612,-0.8622,-0.8634,-0.8634,-0.864,-0.8645,-0.8644,-0.8646,-0.8647,-0.864,-0.864,-0.8641,-0.8641,0,0,-0.8422,-0.8453,-0.8455,-0.8465,-0.8489,-0.8501,-0.8515,-0.8534,-0.8542,-0.8559,-0.8571,-0.8594,-0.8599,-0.8611,-0.8623,-0.863,-0.8633,-0.8635,-0.8636,-0.8634,-0.8646,-0.8641,-0.8642,-0.8639,-0.8639,-0.8639,-0.8644,0,-0.8427,-0.8451,-0.8466,-0.8484,-0.8498,-0.8512,-0.8523,-0.8539,-0.8551,-0.8565,-0.8579,-0.8594,-0.86,-0.8608,-0.8615,-0.8631,-0.8635,-0.8631,-0.865,-0.865,-0.8644,-0.8643,-0.8638,-0.8642,-0.8645,-0.8645,-0.8645,0,-0.8437,-0.8452,-0.8471,-0.8492,-0.8499,-0.8509,-0.8527,-0.854,-0.8558,-0.8566,-0.8579,-0.859,-0.8605,-0.8608,-0.8628,-0.8625,-0.8633,-0.8642,-0.8642,-0.8645,-0.8648,-0.8645,-0.8643,-0.8644,-0.8646,-0.8646,-0.8646,0,-0.843,-0.8456,-0.847,-0.8479,-0.8504,-0.8511,-0.8521,-0.8539,-0.8549,-0.8565,-0.8572,-0.859,-0.8599,-0.8613,-0.8628,-0.8629,-0.8647,-0.8651,-0.8654,-0.8654,-0.8658,-0.8657,-0.8657,-0.8663,-0.8663,-0.8663,-0.8663,0,-0.8434,-0.8445,-0.8467,-0.8477,-0.8489,-0.8506,-0.8518,-0.853,-0.8546,-0.8557,-0.857,-0.8581,-0.8601,-0.8614,-0.8627,-0.8641,-0.8646,-0.8653,-0.8656,-0.8652,-0.8651,-0.8658,-0.8658,-0.8663,-0.8663,-0.8663,-0.8663,0,-0.8429,-0.8444,-0.8461,-0.8483,-0.8489,-0.8497,-0.8516,-0.8525,-0.8537,-0.8552,-0.8556,-0.8576,-0.8592,-0.8609,-0.8631,-0.8639,-0.8653,-0.8658,-0.8647,-0.8649,-0.865,-0.865,-0.8655,-0.8656,-0.8661,-0.8661,-0.8661,0,-0.8431,-0.844,-0.8462,-0.847,-0.848,-0.8494,-0.8504,-0.852,-0.853,-0.855,-0.8557,-0.8573,-0.8588,-0.8613,-0.8629,-0.8646,-0.8651,-0.8651,-0.8654,-0.8648,-0.865,-0.865,-0.865,-0.8651,-0.8651,-0.865,-0.865,0,-0.8432,-0.8439,-0.8453,-0.8468,-0.848,-0.8493,-0.8507,-0.8513,-0.8532,-0.8543,-0.8559,-0.857,-0.8591,-0.8608,-0.8626,-0.8638,-0.8647,-0.8649,-0.8651,-0.8647,-0.864,-0.8643,-0.8645,-0.8649,-0.8649,-0.865,-0.865,-0.865,-0.8431,-0.8439,-0.8455,-0.8469,-0.8481,-0.8494,-0.8503,-0.8516,-0.8529,-0.8548,-0.8557,-0.8572,-0.8589,-0.8615,-0.8626,-0.8639,-0.8641,-0.8644,-0.8644,-0.8645,-0.8643,-0.8637,-0.8642,-0.8642,-0.8642,-0.8642,-0.8642,0,-0.8432,-0.8443,-0.8456,-0.8475,-0.8486,-0.8493,-0.8508,-0.8517,-0.8531,-0.8545,-0.8559,-0.8576,-0.8592,-0.8609,-0.8626,-0.8633,-0.8637,-0.8636,-0.8636,-0.8639,-0.864,-0.8637,-0.8632,-0.8632,-0.8632,-0.8632,-0.8632,-0.8632,-0.8434,-0.8448,-0.8456,-0.8476,-0.8487,-0.8502,-0.851,-0.8521,-0.8533,-0.8552,-0.8565,-0.8575,-0.8591,-0.8608,-0.8623,-0.8628,-0.8633,-0.8631,-0.8637,-0.8638,-0.8639,-0.8639,-0.8636,-0.8632,-0.8632,-0.8634,-0.8634,-0.8634]}]]